Regional Weather Roundup
Issued by NWS

Home | Current Version | Previous Version | Text Only | Print | Product List | Glossary Off
Versions: 1 2 3 4 5 6 7 8 9 10 11 12 13 14 15 16 17 18 19 20 21 22 23 24 25 26 27 28 29 30 31 32 33 34 35 36 37 38 39 40 41 42 43 44 45 46 47 48 49

924
ASUS45 KBOU 232307
RWRCO

WEATHER ROUNDUP FOR COLORADO
NATIONAL WEATHER SERVICE DENVER/BOULDER CO
500 PM MDT SUN APR 23 2017

NOTE: "FAIR" INDICATES FEW OR NO CLOUDS BELOW 12000 FEET WITH NO
SIGNIFICANT WEATHER AND/OR OBSTRUCTIONS TO VISIBILITY.

COZ001>005-013-030-031-240000-
...NORTHWEST COLORADO...

CITY           SKY/WX    TMP DP  RH WIND       PRES   REMARKS
CRAIG          FAIR      67  25  20 W23G31    29.78F
HAYDEN         FAIR      64  23  20 SW20G30   29.80F
MEEKER         FAIR      67  22  18 W17G23    29.80F
MOUNT WERNER   NOT AVBL
STEAMBOAT SPGS FAIR      63  26  24 SW16      29.83F
WALDEN           N/A     59  19  21 SW20G30   29.89F
$$

COZ006>008-011-240000-
...WEST CENTRAL VALLEYS...

CITY           SKY/WX    TMP DP  RH WIND       PRES   REMARKS
GRAND JUNCTION FAIR      74  25  16 NW15      29.74F
MONTROSE       FAIR      74  16  11 S18G29    29.83S
EAGLE          MOSUNNY   68  23  18 W14G22    29.82F
RIFLE          FAIR      74  22  14 W20G31    29.75F
DELTA          FAIR      80  13   8 SW21G35   29.79S
NUCLA          FAIR      72  18  13 SW18G31   29.87F
$$

COZ017>023-064>068-240000-
...SOUTHWEST COLORADO...

CITY           SKY/WX    TMP DP  RH WIND       PRES   REMARKS
DURANGO        FAIR      69  17  13 SW8       29.93F
CORTEZ         FAIR      74  20  13 SW16G25   29.86F
PAGOSA SPRINGS FAIR      66  15  14 W12G21    30.01F
TELLURIDE      FAIR      58  12  16 SW22G30   30.04F
WOLF CREEK PAS FAIR      39  19  45 S20G37    30.23F
$$

COZ009-010-012-014-032>034-037-058>063-240000-
...CENTRAL COLORADO...

CITY           SKY/WX    TMP DP  RH WIND       PRES   REMARKS
ASPEN          FAIR      67  18  15 S15G26    29.88F
BUENA VISTA    FAIR      65  21  19 SE16G25   29.90S
COPPER MTN     FAIR      46   9  21 S17G25    30.13F
BERTHOUD PASS  FAIR      41  30  65 MISG      30.14F
COTTONWOOD PAS FAIR      61  14  16 S7G17     30.02F
GUNNISON       FAIR      67  22  18 W15G21    29.90F
KREMMLING      FAIR      72  19  14 W12G22    29.85F
LEADVILLE      FAIR      54  12  18 W18G24    30.00F
MONARCH PASS   FAIR      45  21  39 SW23G30   30.25F
SALIDA         FAIR      71  20  14 S16G25    29.96F
SUNLIGHT       PTSUNNY   43  23  45 SW17G35   30.08F
WILKERSON PASS CLOUDY    50  18  27 SW10G23   30.12F
$$

COZ069>075-240000-
...SAN LUIS VALLEY/SANGRE DE CRISTO MOUNTAINS...

CITY           SKY/WX    TMP DP  RH WIND       PRES   REMARKS
ALAMOSA        FAIR      68  16  13 SW23G31   29.95F
LA VETA PASS   FAIR      54  23  30 MISG      30.18F
SAGUACHE       FAIR      68  18  14 W20       29.95F
$$

COZ035-036-038>040-240000-
...NORTHERN COLORADO FRONT RANGE...

CITY           SKY/WX    TMP DP  RH WIND       PRES   REMARKS
DENVER INTL AP PTSUNNY   74  33  22 SE20      29.72F
DMNS CITY PARK   N/A     75  33  22 SE14G23   29.69F
AURORA         PTSUNNY   73  37  27 SE20      29.73F
FRONT RANGE AP PTSUNNY   75  34  22 SE16G25   29.74F
ERIE MUNI ARPT FAIR      76  17  10 E8        29.71F
BOULDER MUN AP FAIR      73  23  15 NE6       29.72F
CENTENNIAL     PTSUNNY   68  36  30 S18       29.73F
BROOMFIELD     PTSUNNY   75  23  14 NE5       29.75F
FORT COLLINS   FAIR      67  43  41 NE8       29.74F
LONGMONT       FAIR      76  23  14 E8        29.73F
$$

COZ041-046-047-076>085-087-088-240000-
...PIKES PEAK/PALMER DIVIDE AND SOUTHERN FOOTHILLS...

CITY           SKY/WX    TMP DP  RH WIND       PRES   REMARKS
COLO. SPRINGS  PTSUNNY   66  36  32 S21       29.84F
A. F. ACADEMY  FAIR      64  35  33 SE14G22   29.84F
SCHRIEVER AFB  FAIR      64  33  31 S21G28    29.85F
ELLICOTT       FAIR     N/A N/A N/A S17       29.83F
FALCON         FAIR      64  32  31 S14G23    29.89F
FORT CARSON    FAIR      65  37  35 S14       29.83F
LIMON          FAIR      65  36  34 S20G28    29.81F
MONUMENT HILL  FAIR      59  34  38 S23G33    29.85F
TRINIDAD       FAIR      79  29  16 S24       29.80F
$$

COZ042>045-048>051-090-091-240000-
...NORTHEAST COLORADO...

CITY           SKY/WX    TMP DP  RH WIND       PRES   REMARKS
GREELEY ARPT   FAIR      74  35  24 SE9       29.72F
AKRON          FAIR      68  36  30 S21       29.76F
BURLINGTON     NOT AVBL
WRAY           NOT AVBL
STERLING       NOT AVBL
HOLYOKE        FAIR      73  41  31 S24       29.76F
FORT MORGAN    FAIR      72  33  24 S17       29.73F
$$

COZ086-089-092>099-240000-
...SOUTHEAST COLORADO...

CITY           SKY/WX    TMP DP  RH WIND       PRES   REMARKS
PUEBLO         FAIR      74  37  26 E5        29.75F
LA JUNTA       FAIR      80  30  16 S9        29.75F
LAMAR          FAIR      78  34  20 S24G31    29.76F
SPRINGFIELD      N/A     72  36  26 S30G38    29.85F
$$




USA.gov is the U.S. government's official web portal to all federal, state and local government web resources and services.